| time (UTC) | temp C | wind direction | speed KPH | gust KPH | rain 1hr cm | rain 24hr cm | rain mn cm | humidity % | barometer mb |
| 20260502130528 | 11 | 319 | 6.4 | 14.5 | 0.00 | 1.70 | 0.00 | 93 | 1019.8 |
| 20260502130138 | 11 | 319 | 8.0 | 12.9 | 0.00 | 1.70 | 0.00 | 93 | 1019.8 |
| 20260502123623 | 10 | 328 | 6.4 | 8.0 | 0.00 | 2.13 | 0.00 | 93 | 1019.4 |
| 20260502123054 | 10 | 311 | 4.8 | 8.0 | 0.00 | 2.13 | 0.00 | 93 | 1019.1 |
| 20260502122557 | 10 | 96 | 4.8 | 6.4 | 0.00 | 2.13 | 0.00 | 93 | 1019.1 |
| 20260502121617 | 10 | 324 | 4.8 | 6.4 | 0.00 | 2.13 | 0.00 | 93 | 1018.9 |
| 20260502121105 | 10 | 324 | 4.8 | 8.0 | 0.00 | 2.13 | 0.00 | 93 | 1018.8 |
| 20260502120616 | 10 | 324 | 4.8 | 8.0 | 0.00 | 2.13 | 0.00 | 93 | 1018.8 |
| 20260502115642 | 10 | 325 | 4.8 | 8.0 | 0.00 | 2.74 | 0.00 | 93 | 1018.7 |
| 20260502115123 | 10 | 298 | 4.8 | 8.0 | 0.00 | 2.74 | 0.00 | 93 | 1018.7 |
| 20260502114548 | 10 | 324 | 4.8 | 6.4 | 0.00 | 2.74 | 0.00 | 93 | 1018.6 |
| 20260502114102 | 10 | 322 | 4.8 | 8.0 | 0.00 | 2.74 | 0.00 | 93 | 1018.6 |
| 20260502113125 | 10 | 324 | 4.8 | 6.4 | 0.00 | 2.74 | 0.00 | 93 | 1018.5 |
| 20260502112604 | 10 | 325 | 4.8 | 8.0 | 0.00 | 2.74 | 0.00 | 93 | 1018.4 |
| 20260502112116 | 10 | 326 | 4.8 | 8.0 | 0.00 | 2.74 | 0.00 | 93 | 1018.4 |
| 20260502111542 | 10 | 327 | 4.8 | 8.0 | 0.00 | 2.74 | 0.00 | 93 | 1018.2 |
| 20260502111048 | 10 | 327 | 4.8 | 9.7 | 0.00 | 2.74 | 0.00 | 93 | 1018.1 |
| 20260502110056 | 10 | 346 | 6.4 | 8.0 | 0.00 | 2.74 | 0.00 | 93 | 1017.9 |
| 20260502105559 | 10 | 346 | 4.8 | 8.0 | 0.00 | 3.00 | 0.00 | 93 | 1017.9 |
| 20260502104620 | 10 | 9 | 3.2 | 6.4 | 0.00 | 3.00 | 0.00 | 93 | 1017.6 |
| 20260502104031 | 10 | 5 | 3.2 | 8.0 | 0.00 | 3.00 | 0.00 | 93 | 1017.6 |
| 20260502103534 | 10 | 355 | 3.2 | 8.0 | 0.00 | 3.00 | 0.00 | 93 | 1017.5 |
| 20260502103123 | 10 | 355 | 4.8 | 9.7 | 0.00 | 3.00 | 0.00 | 93 | 1017.6 |
| 20260502102533 | 10 | 360 | 3.2 | 9.7 | 0.00 | 3.00 | 0.00 | 93 | 1017.5 |
| 20260502102139 | 10 | 15 | 3.2 | 9.7 | 0.00 | 3.00 | 0.00 | 93 | 1017.5 |
| 20260502101543 | 10 | 9 | 4.8 | 9.7 | 0.00 | 3.00 | 0.00 | 93 | 1017.5 |
| 20260502101047 | 10 | 350 | 3.2 | 9.7 | 0.00 | 3.00 | 0.00 | 93 | 1017.5 |
| 20260502100114 | 10 | 355 | 6.4 | 9.7 | 0.00 | 3.00 | 0.00 | 93 | 1017.4 |
| 20260502091049 | 10 | 327 | 6.4 | 9.7 | 0.00 | 3.30 | 0.00 | 93 | 1017.0 |
| 20260502071534 | 11 | 26 | 3.2 | 9.7 | 0.00 | 3.84 | 0.00 | 92 | 1016.3 |
| 20260502071037 | 11 | 15 | 3.2 | 9.7 | 0.00 | 3.84 | 0.00 | 92 | 1016.2 |
| 20260502070645 | 11 | 350 | 6.4 | 9.7 | 0.00 | 3.84 | 0.00 | 92 | 1016.3 |
| 20260502070053 | 11 | 348 | 4.8 | 12.9 | 0.00 | 3.89 | 0.00 | 92 | 1016.4 |
| 20260502065602 | 11 | 360 | 6.4 | 8.0 | 0.00 | 3.89 | 0.00 | 91 | 1016.3 |
| 20260502065033 | 11 | 17 | 3.2 | 9.7 | 0.00 | 3.89 | 0.00 | 91 | 1016.3 |
| 20260502064544 | 11 | 25 | 3.2 | 9.7 | 0.00 | 3.89 | 0.00 | 91 | 1016.2 |
| 20260502064034 | 11 | 30 | 4.8 | 9.7 | 0.00 | 3.89 | 0.00 | 91 | 1016.3 |
| 20260502063545 | 11 | 30 | 4.8 | 8.0 | 0.00 | 3.89 | 0.00 | 92 | 1016.3 |
| 20260502063038 | 11 | 5 | 4.8 | 8.0 | 0.00 | 3.89 | 0.00 | 92 | 1016.3 |
| 20260502062527 | 11 | 351 | 4.8 | 9.7 | 0.00 | 3.89 | 0.00 | 92 | 1016.5 |
| 20260502062056 | 11 | 5 | 4.8 | 9.7 | 0.00 | 3.89 | 0.00 | 92 | 1016.5 |
| 20260502061527 | 11 | 30 | 4.8 | 12.9 | 0.00 | 3.89 | 0.00 | 92 | 1016.5 |
| 20260502061037 | 11 | 34 | 3.2 | 14.5 | 0.00 | 3.89 | 0.00 | 92 | 1016.5 |
| 20260502060553 | 11 | 11 | 8.0 | 14.5 | 0.00 | 3.89 | 0.00 | 92 | 1016.5 |
| 20260502060042 | 11 | 36 | 8.0 | 17.7 | 0.00 | 4.17 | 0.00 | 92 | 1016.5 |
| 20260502055532 | 11 | 31 | 8.0 | 17.7 | 0.00 | 4.17 | 0.00 | 92 | 1016.5 |
| 20260502055042 | 11 | 48 | 9.7 | 17.7 | 0.00 | 4.17 | 0.00 | 92 | 1016.5 |
| 20260502054601 | 11 | 26 | 8.0 | 16.1 | 0.00 | 4.17 | 0.00 | 92 | 1016.4 |
| 20260502054111 | 11 | 53 | 6.4 | 16.1 | 0.00 | 4.17 | 0.00 | 92 | 1016.4 |
| 20260502053534 | 11 | 39 | 4.8 | 16.1 | 0.00 | 4.17 | 0.00 | 92 | 1016.4 |
| 20260502053031 | 11 | 55 | 9.7 | 16.1 | 0.00 | 4.17 | 0.00 | 92 | 1016.4 |
| 20260502052609 | 11 | 52 | 8.0 | 14.5 | 0.00 | 4.17 | 0.00 | 92 | 1016.4 |
| 20260502052030 | 11 | 17 | 6.4 | 16.1 | 0.00 | 4.17 | 0.00 | 92 | 1016.4 |
| 20260502051550 | 11 | 36 | 8.0 | 16.1 | 0.00 | 4.17 | 0.00 | 92 | 1016.4 |
| 20260502051032 | 11 | 32 | 8.0 | 17.7 | 0.00 | 4.17 | 0.00 | 92 | 1016.4 |
| 20260502050608 | 11 | 28 | 9.7 | 17.7 | 0.00 | 4.17 | 0.00 | 92 | 1016.4 |
| 20260502050128 | 11 | 61 | 8.0 | 16.1 | 0.00 | 4.17 | 0.00 | 92 | 1016.4 |
| 20260502045530 | 11 | 32 | 9.7 | 20.9 | 0.00 | 4.39 | 4.17 | 92 | 1016.4 |
| 20260502044558 | 11 | 78 | 9.7 | 24.1 | 0.00 | 4.39 | 4.17 | 92 | 1016.1 |
| 20260502044103 | 11 | 39 | 12.9 | 20.9 | 0.00 | 4.39 | 4.17 | 92 | 1016.1 |
| 20260502043612 | 11 | 47 | 11.3 | 19.3 | 0.00 | 4.39 | 4.17 | 92 | 1016.1 |
| 20260502043042 | 11 | 20 | 8.0 | 20.9 | 0.00 | 4.39 | 4.17 | 92 | 1016.1 |
| 20260502042551 | 11 | 14 | 14.5 | 22.5 | 0.00 | 4.39 | 4.17 | 92 | 1016.1 |
| 20260502041609 | 11 | 28 | 11.3 | 25.7 | 0.00 | 4.39 | 4.17 | 92 | 1016.0 |
| 20260502041112 | 11 | 349 | 14.5 | 27.4 | 0.00 | 4.39 | 4.17 | 92 | 1016.0 |
| 20260502040623 | 11 | 35 | 17.7 | 27.4 | 0.00 | 4.39 | 4.17 | 92 | 1015.9 |
| 20260502040051 | 12 | 32 | 16.1 | 25.7 | 0.00 | 4.45 | 4.17 | 92 | 1015.9 |
| 20260502035533 | 12 | 19 | 12.9 | 17.7 | 0.00 | 4.45 | 4.17 | 93 | 1016.0 |
| 20260502034602 | 12 | 355 | 11.3 | 22.5 | 0.00 | 4.45 | 4.17 | 93 | 1016.0 |
| 20260502034106 | 12 | 14 | 11.3 | 19.3 | 0.00 | 4.45 | 4.17 | 93 | 1016.0 |
| 20260502033621 | 12 | 23 | 6.4 | 19.3 | 0.00 | 4.45 | 4.17 | 93 | 1016.1 |
| 20260502033039 | 12 | 31 | 9.7 | 19.3 | 0.00 | 4.45 | 4.17 | 93 | 1016.0 |
| 20260502032551 | 12 | 331 | 12.9 | 19.3 | 0.00 | 4.45 | 4.17 | 93 | 1016.0 |
| 20260502032103 | 12 | 15 | 9.7 | 19.3 | 0.00 | 4.45 | 4.17 | 93 | 1016.0 |
| 20260502031643 | 12 | 355 | 9.7 | 19.3 | 0.00 | 4.45 | 4.17 | 93 | 1015.9 |
| 20260502031135 | 12 | 32 | 11.3 | 17.7 | 0.00 | 4.45 | 4.17 | 93 | 1015.8 |
| 20260502030617 | 12 | 9 | 9.7 | 17.7 | 0.00 | 4.45 | 4.17 | 93 | 1015.6 |
| 20260502030044 | 12 | 345 | 8.0 | 22.5 | 0.00 | 4.45 | 4.17 | 93 | 1015.4 |
| 20260502025535 | 12 | 35 | 12.9 | 22.5 | 0.00 | 4.45 | 4.17 | 93 | 1015.3 |
| 20260502024555 | 12 | 28 | 14.5 | 24.1 | 0.00 | 4.45 | 4.17 | 93 | 1015.3 |
| 20260502024037 | 12 | 26 | 12.9 | 22.5 | 0.00 | 4.45 | 4.17 | 93 | 1015.2 |
| 20260502023111 | 12 | 35 | 8.0 | 22.5 | 0.00 | 4.45 | 4.17 | 93 | 1015.3 |
| 20260502022614 | 12 | 32 | 12.9 | 22.5 | 0.00 | 4.45 | 4.17 | 93 | 1015.2 |
| 20260502022127 | 12 | 355 | 9.7 | 24.1 | 0.00 | 4.45 | 4.17 | 93 | 1015.1 |
| 20260502021545 | 12 | 348 | 12.9 | 24.1 | 0.00 | 4.45 | 4.17 | 93 | 1014.9 |
| 20260502021057 | 12 | 34 | 9.7 | 17.7 | 0.00 | 4.45 | 4.17 | 93 | 1014.8 |
| 20260502020119 | 12 | 350 | 6.4 | 16.1 | 0.00 | 4.45 | 4.17 | 93 | 1014.4 |
| 20260502015608 | 12 | 22 | 8.0 | 22.5 | 0.00 | 4.45 | 4.17 | 93 | 1014.4 |
| 20260502014607 | 12 | 26 | 12.9 | 24.1 | 0.00 | 4.45 | 4.17 | 93 | 1013.6 |
| 20260502014123 | 12 | 33 | 11.3 | 24.1 | 0.00 | 4.45 | 4.17 | 93 | 1013.5 |
| 20260502013626 | 12 | 32 | 12.9 | 24.1 | 0.03 | 4.45 | 4.17 | 93 | 1013.2 |
| 20260502013053 | 12 | 26 | 12.9 | 24.1 | 0.03 | 4.45 | 4.17 | 93 | 1013.0 |
| 20260502012558 | 12 | 34 | 14.5 | 22.5 | 0.03 | 4.45 | 4.17 | 93 | 1013.2 |
| 20260502011605 | 12 | 57 | 12.9 | 20.9 | 0.05 | 4.45 | 4.17 | 94 | 1013.2 |
| 20260502011047 | 13 | 57 | 12.9 | 24.1 | 0.08 | 4.45 | 4.17 | 94 | 1013.4 |
| 20260502010047 | 13 | 51 | 17.7 | 25.7 | 0.08 | 4.45 | 4.17 | 93 | 1013.7 |
| 20260502005556 | 13 | 360 | 14.5 | 22.5 | 0.08 | 4.45 | 4.17 | 93 | 1013.9 |
| 20260502005138 | 13 | 355 | 9.7 | 19.3 | 0.10 | 4.45 | 4.17 | 93 | 1013.7 |
| 20260502004545 | 13 | 24 | 11.3 | 24.1 | 0.13 | 4.45 | 4.17 | 93 | 1013.3 |
| 20260502004056 | 13 | 10 | 17.7 | 24.1 | 0.13 | 4.45 | 4.17 | 93 | 1013.1 |
| 20260502003049 | 13 | 58 | 11.3 | 22.5 | 0.13 | 4.42 | 4.14 | 93 | 1013.5 |
| 20260502002601 | 13 | 32 | 12.9 | 24.1 | 0.13 | 4.42 | 4.14 | 93 | 1013.5 |
| 20260502001622 | 13 | 41 | 11.3 | 19.3 | 0.13 | 4.39 | 4.11 | 93 | 1013.5 |
| 20260502001032 | 13 | 19 | 11.3 | 19.3 | 0.18 | 4.39 | 4.11 | 93 | 1013.5 |
| 20260502000057 | 13 | 12 | 9.7 | 24.1 | 0.18 | 4.37 | 4.09 | 93 | 1013.3 |
| 20260501235544 | 13 | 26 | 14.5 | 24.1 | 0.23 | 4.37 | 4.09 | 93 | 1013.1 |
| 20260501234604 | 14 | 29 | 14.5 | 25.7 | 0.25 | 4.34 | 4.06 | 93 | 1012.9 |
| 20260501234046 | 14 | 42 | 14.5 | 20.9 | 0.25 | 4.34 | 4.06 | 94 | 1012.9 |
| 20260501233113 | 14 | 344 | 8.0 | 19.3 | 0.23 | 4.32 | 4.04 | 93 | 1012.7 |
| 20260501232555 | 14 | 346 | 11.3 | 19.3 | 0.20 | 4.29 | 4.01 | 93 | 1012.6 |
| 20260501231615 | 14 | 10 | 11.3 | 24.1 | 0.18 | 4.27 | 3.99 | 93 | 1012.4 |
| 20260501231102 | 14 | 342 | 11.3 | 24.1 | 0.18 | 4.27 | 3.99 | 93 | 1012.3 |
| 20260501230122 | 15 | 32 | 8.0 | 16.1 | 0.20 | 4.22 | 3.94 | 93 | 1012.1 |
| 20260501225534 | 15 | 5 | 9.7 | 17.7 | 0.18 | 4.19 | 3.91 | 93 | 1012.2 |
| 20260501225037 | 15 | 22 | 11.3 | 17.7 | 0.13 | 4.14 | 3.86 | 93 | 1012.1 |
| 20260501224627 | 15 | 351 | 4.8 | 17.7 | 0.08 | 4.09 | 3.81 | 93 | 1012.1 |
| 20260501224029 | 15 | 49 | 11.3 | 20.9 | 0.08 | 4.09 | 3.81 | 93 | 1011.7 |
| 20260501223059 | 15 | 44 | 11.3 | 25.7 | 0.08 | 4.09 | 3.81 | 93 | 1010.7 |
| 20260501222559 | 15 | 26 | 16.1 | 25.7 | 0.08 | 4.09 | 3.81 | 93 | 1010.9 |
| 20260501221619 | 15 | 36 | 9.7 | 22.5 | 0.08 | 4.09 | 3.81 | 93 | 1011.0 |
| 20260501221036 | 15 | 35 | 11.3 | 25.7 | 0.10 | 4.09 | 3.81 | 93 | 1010.9 |
| 20260501220052 | 15 | 55 | 17.7 | 24.1 | 0.15 | 4.04 | 3.76 | 93 | 1010.1 |
| 20260501215603 | 15 | 11 | 16.1 | 24.1 | 0.15 | 4.01 | 3.73 | 93 | 1010.7 |
| 20260501215101 | 15 | 26 | 14.5 | 30.6 | 0.15 | 4.01 | 3.73 | 93 | 1010.5 |
| 20260501214531 | 15 | 59 | 16.1 | 37.0 | 0.18 | 4.01 | 3.73 | 93 | 1009.1 |
| 20260501214035 | 15 | 17 | 19.3 | 37.0 | 0.20 | 4.01 | 3.73 | 93 | 1009.5 |
| 20260501213547 | 15 | 30 | 14.5 | 29.0 | 0.25 | 4.01 | 3.73 | 94 | 1009.3 |
| 20260501213033 | 15 | 74 | 14.5 | 25.7 | 0.25 | 4.01 | 3.73 | 94 | 1009.4 |
| 20260501212545 | 15 | 21 | 11.3 | 25.7 | 0.28 | 4.01 | 3.73 | 94 | 1010.2 |
| 20260501211603 | 15 | 40 | 16.1 | 25.7 | 0.33 | 4.01 | 3.73 | 94 | 1010.1 |
| 20260501211055 | 15 | 32 | 16.1 | 25.7 | 0.36 | 4.01 | 3.73 | 94 | 1010.0 |
| 20260501210115 | 15 | 32 | 16.1 | 25.7 | 0.28 | 3.94 | 3.66 | 94 | 1010.1 |
| 20260501205555 | 15 | 49 | 8.0 | 17.7 | 0.23 | 3.91 | 3.61 | 94 | 1011.0 |
| 20260501205105 | 15 | 19 | 9.7 | 25.7 | 0.23 | 3.89 | 3.58 | 94 | 1011.4 |
| 20260501204533 | 15 | 26 | 9.7 | 25.7 | 0.25 | 3.89 | 3.58 | 94 | 1010.7 |
| 20260501204038 | 15 | 39 | 11.3 | 27.4 | 0.25 | 3.86 | 3.56 | 94 | 1010.3 |
| 20260501203112 | 15 | 355 | 12.9 | 22.5 | 0.20 | 3.78 | 3.48 | 94 | 1011.3 |
| 20260501202616 | 15 | 355 | 8.0 | 22.5 | 0.20 | 3.78 | 3.48 | 94 | 1011.5 |
| 20260501202028 | 15 | 348 | 9.7 | 22.5 | 0.20 | 3.76 | 3.45 | 94 | 1011.1 |
| 20260501201531 | 15 | 16 | 11.3 | 30.6 | 0.20 | 3.73 | 3.43 | 94 | 1011.1 |
| 20260501201038 | 15 | 15 | 16.1 | 30.6 | 0.18 | 3.71 | 3.40 | 94 | 1010.0 |
| 20260501200642 | 15 | 52 | 14.5 | 27.4 | 0.18 | 3.68 | 3.38 | 94 | 1010.0 |
| 20260501200046 | 15 | 14 | 14.5 | 27.4 | 0.20 | 3.68 | 3.38 | 94 | 1010.4 |
| 20260501195529 | 15 | 21 | 9.7 | 25.7 | 0.20 | 3.68 | 3.38 | 93 | 1010.8 |
| 20260501194603 | 15 | 32 | 14.5 | 25.7 | 0.20 | 3.66 | 3.35 | 93 | 1010.4 |
| 20260501194106 | 15 | 52 | 12.9 | 27.4 | 0.18 | 3.63 | 3.33 | 93 | 1010.3 |
| 20260501193618 | 15 | 36 | 14.5 | 27.4 | 0.15 | 3.61 | 3.30 | 94 | 1010.5 |
| 20260501193039 | 15 | 350 | 12.9 | 22.5 | 0.13 | 3.58 | 3.28 | 94 | 1010.6 |
| 20260501192550 | 15 | 346 | 11.3 | 20.9 | 0.13 | 3.58 | 3.28 | 93 | 1011.1 |
| 20260501191613 | 15 | 40 | 14.5 | 24.1 | 0.10 | 3.56 | 3.25 | 93 | 1009.8 |
| 20260501191122 | 15 | 34 | 9.7 | 19.3 | 0.08 | 3.53 | 3.23 | 93 | 1010.1 |
| 20260501190625 | 16 | 336 | 11.3 | 19.3 | 0.08 | 3.53 | 3.23 | 93 | 1010.0 |
| 20260501190055 | 16 | 348 | 11.3 | 19.3 | 0.05 | 3.51 | 3.20 | 93 | 1010.2 |
| 20260501185545 | 16 | 341 | 9.7 | 27.4 | 0.03 | 3.48 | 3.17 | 93 | 1011.2 |
| 20260501184606 | 16 | 349 | 16.1 | 29.0 | 0.03 | 3.48 | 3.17 | 93 | 1010.2 |
| 20260501184110 | 16 | 337 | 12.9 | 22.5 | 0.00 | 3.45 | 3.15 | 93 | 1009.6 |
| 20260501183621 | 16 | 347 | 11.3 | 20.9 | 0.00 | 3.45 | 3.15 | 93 | 1009.8 |
| 20260501183048 | 17 | 325 | 8.0 | 14.5 | 0.00 | 3.45 | 3.15 | 93 | 1010.3 |
| 20260501182550 | 17 | 331 | 3.2 | 17.7 | 0.00 | 3.45 | 3.15 | 93 | 1010.0 |
| 20260501181612 | 17 | 49 | 12.9 | 20.9 | 0.00 | 3.45 | 3.15 | 93 | 1009.4 |
| 20260501181028 | 17 | 22 | 11.3 | 22.5 | 0.03 | 3.45 | 3.15 | 93 | 1008.9 |
| 20260501180641 | 17 | 5 | 12.9 | 22.5 | 0.03 | 3.45 | 3.15 | 93 | 1008.9 |
| 20260501180040 | 17 | 64 | 12.9 | 25.7 | 0.05 | 3.45 | 3.15 | 94 | 1008.9 |
| 20260501175551 | 17 | 65 | 19.3 | 29.0 | 0.05 | 3.45 | 3.15 | 94 | 1008.6 |
| 20260501175103 | 17 | 50 | 11.3 | 29.0 | 0.08 | 3.45 | 3.15 | 94 | 1008.7 |
| 20260501174647 | 17 | 57 | 8.0 | 29.0 | 0.08 | 3.45 | 3.15 | 94 | 1008.8 |
| 20260501174137 | 16 | 81 | 17.7 | 33.8 | 0.10 | 3.45 | 3.15 | 94 | 1008.6 |
| 20260501173620 | 16 | 61 | 22.5 | 35.4 | 0.10 | 3.45 | 3.15 | 94 | 1008.1 |
| 20260501173047 | 16 | 59 | 25.7 | 38.6 | 0.13 | 3.45 | 3.15 | 94 | 1008.0 |
| 20260501172559 | 16 | 55 | 27.4 | 40.2 | 0.13 | 3.45 | 3.15 | 95 | 1008.2 |
| 20260501172102 | 16 | 53 | 30.6 | 41.8 | 0.13 | 3.45 | 3.15 | 94 | 1008.7 |
| 20260501171533 | 16 | 72 | 30.6 | 38.6 | 0.13 | 3.45 | 3.15 | 94 | 1009.3 |
| 20260501171036 | 16 | 69 | 25.7 | 35.4 | 0.13 | 3.45 | 3.15 | 95 | 1009.7 |
| 20260501170104 | 15 | 45 | 16.1 | 27.4 | 0.10 | 3.43 | 3.12 | 94 | 1011.1 |
| 20260501165545 | 15 | 63 | 14.5 | 24.1 | 0.08 | 3.40 | 3.10 | 94 | 1011.7 |
| 20260501164544 | 15 | 24 | 11.3 | 20.9 | 0.08 | 3.38 | 3.07 | 94 | 1012.8 |
| 20260501164054 | 15 | 28 | 12.9 | 20.9 | 0.10 | 3.38 | 3.07 | 94 | 1012.8 |
| 20260501163111 | 15 | 69 | 9.7 | 20.9 | 0.10 | 3.35 | 3.05 | 94 | 1012.4 |
| 20260501162601 | 15 | 50 | 12.9 | 20.9 | 0.10 | 3.33 | 3.02 | 94 | 1012.4 |
| 20260501161600 | 15 | 64 | 9.7 | 25.7 | 0.18 | 3.33 | 3.02 | 94 | 1012.1 |
| 20260501161114 | 15 | 51 | 14.5 | 25.7 | 0.20 | 3.33 | 3.02 | 94 | 1011.9 |
| 20260501160528 | 15 | 51 | 16.1 | 27.4 | 0.23 | 3.33 | 3.02 | 94 | 1011.5 |
| 20260501155533 | 15 | 75 | 17.7 | 29.0 | 0.28 | 3.33 | 3.02 | 94 | 1011.7 |
| 20260501154554 | 15 | 5 | 12.9 | 25.7 | 0.30 | 3.33 | 3.02 | 94 | 1012.0 |
| 20260501154106 | 15 | 355 | 9.7 | 29.0 | 0.28 | 3.30 | 3.00 | 94 | 1012.2 |
| 20260501153611 | 15 | 26 | 17.7 | 29.0 | 0.28 | 3.30 | 3.00 | 94 | 1012.1 |
| 20260501153037 | 15 | 91 | 12.9 | 25.7 | 0.25 | 3.28 | 2.97 | 94 | 1012.0 |
| 20260501152547 | 15 | 27 | 12.9 | 22.5 | 0.23 | 3.25 | 2.95 | 94 | 1012.2 |
| 20260501151612 | 15 | 327 | 14.5 | 22.5 | 0.18 | 3.20 | 2.90 | 94 | 1013.5 |
| 20260501151123 | 16 | 5 | 12.9 | 20.9 | 0.15 | 3.17 | 2.87 | 94 | 1013.5 |
| 20260501150601 | 16 | 329 | 11.3 | 17.7 | 0.13 | 3.12 | 2.82 | 94 | 1013.6 |
| 20260501150032 | 16 | 331 | 12.9 | 17.7 | 0.10 | 3.10 | 2.79 | 94 | 1013.6 |
| 20260501145537 | 16 | 328 | 8.0 | 17.7 | 0.08 | 3.07 | 2.77 | 94 | 1013.5 |
| 20260501145103 | 16 | 348 | 12.9 | 17.7 | 0.10 | 3.07 | 2.77 | 94 | 1013.3 |
| 20260501144535 | 15 | 345 | 8.0 | 19.3 | 0.08 | 3.02 | 2.72 | 94 | 1013.3 |
| 20260501144038 | 16 | 338 | 12.9 | 19.3 | 0.13 | 3.02 | 2.72 | 94 | 1013.1 |